• In Hungary
  • List of Countries
  • For 7 days
  • Water Temperature
  • Satellite Maps
  • Weather Map
  • News
  • Weather Widgets
  • user-avatar
    Login

    Hourly Weather Yamagata

    Today, 26 September, Wednesday

    Time Temperature Precipitation Wind Pressure Humidity
    00:00 +13°C° 0 mm 1 mps 721 mmHg 94%
    01:00 +13°C° 0 mm 1 mps 721 mmHg 94%
    02:00 +13°C° 0 mm 1 mps 721 mmHg 94%
    03:00 +12°C° 0 mm 1 mps 722 mmHg 94%
    04:00 +12°C° 0 mm 1 mps 722 mmHg 93%
    05:00 +12°C° 0 mm 1 mps 722 mmHg 93%
    06:00 +11°C° 0 mm 1 mps 722 mmHg 93%
    07:00 +13°C° 0 mm 1 mps 722 mmHg 84%
    08:00 +16°C° 0 mm 1 mps 723 mmHg 75%
    09:00 +17°C° 0 mm 2 mps 723 mmHg 67%
    10:00 +19°C° 0 mm 2 mps 723 mmHg 62%
    11:00 +20°C° 0 mm 2 mps 723 mmHg 56%
    12:00 +21°C° 0 mm 2 mps 723 mmHg 50%
    13:00 +21°C° 0 mm 2 mps 723 mmHg 52%
    14:00 +21°C° 0 mm 2 mps 722 mmHg 55%
    15:00 +20°C° 0 mm 2 mps 722 mmHg 57%
    16:00 +18°C° 0 mm 2 mps 722 mmHg 66%
    17:00 +17°C° 0 mm 2 mps 722 mmHg 74%
    18:00 +15°C° 0 mm 2 mps 722 mmHg 82%
    19:00 +14°C° 0 mm 2 mps 722 mmHg 83%
    20:00 +14°C° 0 mm 2 mps 722 mmHg 84%
    21:00 +14°C° 0 mm 2 mps 722 mmHg 85%
    22:00 +13°C° 0 mm 2 mps 722 mmHg 84%
    23:00 +13°C° 0 mm 2 mps 721 mmHg 82%

    Tomorrow, 27 September, Thursday

    Time Temperature Precipitation Wind Pressure Humidity
    00:00 +13°C° 0 mm 2 mps 721 mmHg 81%
    01:00 +13°C° 0.7 mm 2 mps 721 mmHg 85%
    02:00 +13°C° 0.7 mm 2 mps 721 mmHg 88%
    03:00 +13°C° 0.7 mm 2 mps 720 mmHg 92%
    04:00 +12°C° 1.5 mm 2 mps 720 mmHg 93%
    05:00 +12°C° 1.5 mm 2 mps 720 mmHg 94%
    06:00 +12°C° 1.5 mm 2 mps 720 mmHg 95%
    07:00 +12°C° 0.8 mm 2 mps 720 mmHg 95%
    08:00 +13°C° 0.8 mm 2 mps 720 mmHg 94%
    09:00 +13°C° 0.8 mm 2 mps 720 mmHg 94%
    10:00 +14°C° 0.6 mm 2 mps 720 mmHg 92%
    11:00 +14°C° 0.6 mm 2 mps 719 mmHg 91%
    12:00 +15°C° 0.6 mm 2 mps 719 mmHg 90%
    13:00 +15°C° 0.2 mm 2 mps 719 mmHg 89%
    14:00 +15°C° 0.2 mm 2 mps 719 mmHg 88%
    15:00 +16°C° 0.2 mm 2 mps 718 mmHg 86%
    16:00 +15°C° 0 mm 2 mps 719 mmHg 89%
    17:00 +14°C° 0 mm 2 mps 719 mmHg 92%
    18:00 +14°C° 0 mm 2 mps 719 mmHg 94%
    19:00 +13°C° 0 mm 1 mps 719 mmHg 95%
    20:00 +13°C° 0 mm 1 mps 719 mmHg 95%
    21:00 +13°C° 0 mm 1 mps 719 mmHg 96%
    22:00 +13°C° 0 mm 1 mps 719 mmHg 96%
    23:00 +12°C° 0 mm 1 mps 719 mmHg 96%

    Day after tomorrow, 28 September, Friday

    Time Temperature Precipitation Wind Pressure Humidity
    00:00 +12°C° 0 mm 1 mps 719 mmHg 95%
    01:00 +12°C° 0 mm 1 mps 719 mmHg 95%
    02:00 +12°C° 0 mm 1 mps 719 mmHg 95%
    03:00 +12°C° 0 mm 1 mps 719 mmHg 95%
    04:00 +12°C° 0 mm 1 mps 719 mmHg 95%
    05:00 +12°C° 0 mm 1 mps 720 mmHg 95%
    06:00 +12°C° 0 mm 1 mps 720 mmHg 94%
    07:00 +14°C° 0 mm 1 mps 721 mmHg 87%
    08:00 +16°C° 0 mm 1 mps 721 mmHg 80%
    09:00 +20°C° 0 mm 1 mps 722 mmHg 73%
    10:00 +20°C° 0 mm 1 mps 722 mmHg 68%
    11:00 +21°C° 0 mm 1 mps 722 mmHg 64%
    12:00 +21°C° 0 mm 2 mps 722 mmHg 59%
    13:00 +21°C° 0.1 mm 2 mps 722 mmHg 60%
    14:00 +21°C° 0.1 mm 2 mps 722 mmHg 60%
    15:00 +21°C° 0.1 mm 2 mps 722 mmHg 60%
    16:00 +19°C° 0 mm 2 mps 722 mmHg 70%
    17:00 +16°C° 0 mm 1 mps 722 mmHg 79%
    18:00 +14°C° 0 mm 1 mps 722 mmHg 88%
    19:00 +14°C° 0 mm 1 mps 722 mmHg 90%
    20:00 +13°C° 0 mm 1 mps 722 mmHg 92%
    21:00 +11°C° 0 mm 0 mps 723 mmHg 94%
    22:00 +11°C° 0 mm 0 mps 723 mmHg 93%
    23:00 +11°C° 0 mm 0 mps 723 mmHg 93%

    29 September, Saturday

    Time Temperature Precipitation Wind Pressure Humidity
    00:00 +11°C° 0 mm 0 mps 723 mmHg 93%
    01:00 +12°C° 0 mm 0 mps 722 mmHg 93%
    02:00 +13°C° 0 mm 1 mps 722 mmHg 93%
    03:00 +13°C° 0 mm 1 mps 722 mmHg 93%
    04:00 +13°C° 0 mm 1 mps 722 mmHg 92%
    05:00 +13°C° 0 mm 1 mps 722 mmHg 91%
    06:00 +13°C° 0 mm 1 mps 722 mmHg 90%
    07:00 +15°C° 0 mm 1 mps 723 mmHg 88%
    08:00 +16°C° 0 mm 1 mps 723 mmHg 86%
    09:00 +18°C° 0 mm 1 mps 723 mmHg 84%
    10:00 +19°C° 0.1 mm 1 mps 723 mmHg 83%
    11:00 +19°C° 0.1 mm 1 mps 723 mmHg 82%
    12:00 +20°C° 0.1 mm 1 mps 723 mmHg 81%
    13:00 +20°C° 0.2 mm 1 mps 722 mmHg 81%
    14:00 +20°C° 0.2 mm 1 mps 722 mmHg 82%
    15:00 +20°C° 0.2 mm 1 mps 722 mmHg 82%
    16:00 +19°C° 0.4 mm 1 mps 721 mmHg 86%
    17:00 +18°C° 0.4 mm 1 mps 721 mmHg 90%
    18:00 +16°C° 0.4 mm 1 mps 721 mmHg 93%
    19:00 +16°C° 0.6 mm 1 mps 721 mmHg 94%
    20:00 +16°C° 0.6 mm 1 mps 721 mmHg 94%
    21:00 +15°C° 0.6 mm 1 mps 721 mmHg 95%
    22:00 +15°C° 0.6 mm 1 mps 720 mmHg 95%
    23:00 +15°C° 0.6 mm 1 mps 720 mmHg 95%

    30 September, Sunday

    Time Temperature Precipitation Wind Pressure Humidity
    00:00 +15°C° 0.6 mm 1 mps 720 mmHg 95%
    01:00 +15°C° 1.6 mm 1 mps 719 mmHg 96%
    02:00 +15°C° 1.6 mm 1 mps 719 mmHg 96%
    03:00 +15°C° 1.6 mm 1 mps 718 mmHg 96%
    04:00 +15°C° 2.1 mm 1 mps 718 mmHg 96%
    05:00 +16°C° 2.1 mm 2 mps 718 mmHg 96%
    06:00 +16°C° 2.1 mm 2 mps 717 mmHg 96%
    07:00 +17°C° 0.6 mm 2 mps 717 mmHg 94%
    08:00 +18°C° 0.6 mm 2 mps 716 mmHg 93%
    09:00 +19°C° 0.6 mm 2 mps 716 mmHg 91%
    10:00 +20°C° 0.1 mm 2 mps 715 mmHg 89%
    11:00 +21°C° 0.1 mm 2 mps 715 mmHg 86%
    12:00 +23°C° 0.1 mm 2 mps 714 mmHg 83%
    13:00 +23°C° 0.1 mm 2 mps 713 mmHg 84%
    14:00 +23°C° 0.1 mm 2 mps 713 mmHg 84%
    15:00 +24°C° 0.1 mm 2 mps 712 mmHg 85%
    16:00 +23°C° 0.1 mm 2 mps 712 mmHg 88%
    17:00 +21°C° 0.1 mm 2 mps 711 mmHg 91%
    18:00 +21°C° 0.1 mm 2 mps 711 mmHg 94%
    19:00 +21°C° 0.2 mm 2 mps 710 mmHg 94%
    20:00 +21°C° 0.2 mm 3 mps 709 mmHg 94%
    21:00 +21°C° 0.2 mm 3 mps 708 mmHg 94%
    22:00 +21°C° 0.2 mm 5 mps 705 mmHg 92%
    23:00 +22°C° 0.2 mm 7 mps 702 mmHg 89%

    1 October, Monday

    Time Temperature Precipitation Wind Pressure Humidity
    00:00 +23°C° 0.2 mm 9 mps 699 mmHg 87%
    01:00 +23°C° 6.5 mm 10 mps 697 mmHg 86%
    02:00 +23°C° 6.5 mm 11 mps 694 mmHg 85%
    03:00 +23°C° 6.5 mm 13 mps 692 mmHg 84%
    04:00 +23°C° 0.2 mm 12 mps 696 mmHg 81%
    05:00 +22°C° 0.2 mm 12 mps 699 mmHg 79%
    06:00 +21°C° 0.2 mm 11 mps 702 mmHg 77%
    07:00 +21°C° 0.3 mm 11 mps 704 mmHg 77%
    08:00 +21°C° 0.3 mm 10 mps 705 mmHg 77%
    09:00 +19°C° 0.3 mm 9 mps 706 mmHg 77%
    10:00 +19°C° 0.1 mm 9 mps 707 mmHg 77%
    11:00 +18°C° 0.1 mm 8 mps 708 mmHg 76%
    12:00 +18°C° 0.1 mm 8 mps 708 mmHg 75%
    13:00 +18°C° 0 mm 8 mps 709 mmHg 70%
    14:00 +20°C° 0 mm 8 mps 709 mmHg 65%
    15:00 +20°C° 0 mm 8 mps 710 mmHg 60%
    16:00 +18°C° 0 mm 7 mps 710 mmHg 66%
    17:00 +17°C° 0 mm 6 mps 711 mmHg 71%
    18:00 +16°C° 0 mm 5 mps 711 mmHg 76%
    19:00 +15°C° 0 mm 5 mps 712 mmHg 78%
    20:00 +15°C° 0 mm 4 mps 712 mmHg 80%
    21:00 +15°C° 0 mm 4 mps 713 mmHg 82%
    22:00 +14°C° 0 mm 3 mps 713 mmHg 83%
    23:00 +14°C° 0 mm 3 mps 713 mmHg 84%
    Show more